Weather History for Olean, NY

Change the Weather History Date:

Monday, March 4, 2013

  Actual Average (KBFD) Record (KBFD)
Temperature  
Mean Temperature 19 °F 27 °F  
Max Temperature 23 °F 37 °F 65 °F (1974)
Min Temperature 15 °F 18 °F -13 °F (2014)
Degree Days  
Heating Degree Days 46 32  
Month to date heating degree days 130  
Since 1 July heating degree days 5700  
Cooling Degree Days 0 0  
Month to date cooling degree days 0  
Year to date cooling degree days 0  
Moisture  
Dew Point 16 °F    
Average Humidity 89    
Maximum Humidity 100    
Minimum Humidity 79    
Precipitation  
Precipitation 0.00 in 0.10 in 1.27 in (1964)
Month to date precipitation 0.39  
Year to date precipitation 6.03  
Sea Level Pressure  
Sea Level Pressure 29.88 in    
Wind  
Wind Speed 8 mph (WNW)    
Max Wind Speed 15 mph    
Max Gust Speed 28 mph    
Visibility 6 miles    
Events Snow    
T = Trace of Precipitation, MM = Missing Value Source: NWS Daily Summary

Daily Weather History Graph

Daily Weather History Graph

Search for Another Location

Airport:

Trip Planner

Search our weather history database for the weather conditions in past years. The results will help you decide how hot, cold, wet, or windy it might be!

Date:

Astronomy

Mar. 04, 2013 Rise Set
Actual Time 6:43 AM EST 6:07 PM EST
Civil Twilight 6:15 AM EST 6:35 PM EST
Nautical Twilight 5:43 AM EST 7:07 PM EST
Astronomical Twilight 5:10 AM EST 7:40 PM EST
Moon 12:55 AM EST (3/4) 10:42 AM EST (3/4)
Length of Visible Light 12h 19m
Length of Day
11h 23m
Waning Gibbous, 52% of the Moon is Illuminated
Mar 4
Waning Gibbous
Mar 4
Last Quarter
Mar 11
New
Mar 19
First Quarter
Mar 27
Full

Hourly Weather History & Observations

Time (EST) Temp. Windchill Dew Point Humidity Pressure Visibility Wind Dir Wind Speed Gust Speed Precip Events Conditions
12:15 AM 17.6 °F 9.3 °F 14.0 °F 86% 29.80 in 2.5 mi West 5.8 mph - N/A Snow Light Snow
12:35 AM 15.8 °F 6.1 °F 14.0 °F 93% 29.80 in 2.0 mi WNW 6.9 mph - N/A Snow Light Snow
1:15 AM 15.8 °F 7.2 °F 12.2 °F 86% 29.81 in 1.5 mi West 5.8 mph - N/A Snow Light Snow
1:55 AM 15.8 °F 5.1 °F 12.2 °F 86% 29.82 in 2.5 mi West 8.1 mph - N/A Snow Light Snow
2:15 AM 15.8 °F 6.1 °F 12.2 °F 86% 29.82 in 2.0 mi WNW 6.9 mph - N/A Snow Light Snow
2:35 AM 15.8 °F 8.6 °F 12.2 °F 86% 29.82 in 2.0 mi West 4.6 mph - N/A Snow Light Snow
2:55 AM 15.8 °F 8.6 °F 12.2 °F 86% 29.82 in 2.0 mi WNW 4.6 mph - N/A Snow Light Snow
3:15 AM 15.8 °F 8.6 °F 12.2 °F 86% 29.82 in 1.8 mi WNW 4.6 mph - N/A Snow Light Snow
3:35 AM 15.8 °F 7.2 °F 12.2 °F 86% 29.82 in 1.5 mi West 5.8 mph - N/A Snow Light Snow
4:15 AM 15.8 °F 3.4 °F 14.0 °F 93% 29.82 in 3.0 mi WNW 10.4 mph 23.0 mph N/A Snow Light Snow
4:35 AM 15.8 °F 2.7 °F 14.0 °F 93% 29.83 in 2.5 mi WNW 11.5 mph 19.6 mph N/A Snow Light Snow
4:55 AM 15.8 °F 4.2 °F 14.0 °F 93% 29.84 in 2.5 mi WNW 9.2 mph 21.9 mph N/A Snow Light Snow
5:15 AM 15.8 °F 3.4 °F 12.2 °F 86% 29.84 in 2.5 mi WNW 10.4 mph 19.6 mph N/A Snow Light Snow
5:35 AM 15.8 °F 3.4 °F 12.2 °F 86% 29.84 in 3.0 mi WNW 10.4 mph 18.4 mph N/A Snow Light Snow
5:55 AM 15.8 °F 2.1 °F 12.2 °F 86% 29.85 in 4.0 mi WNW 12.7 mph 19.6 mph N/A Snow Light Snow
6:15 AM 15.8 °F 5.1 °F 12.2 °F 86% 29.85 in 3.0 mi WNW 8.1 mph 18.4 mph N/A Snow Light Snow
6:35 AM 15.8 °F 2.1 °F 12.2 °F 86% 29.85 in 7.0 mi WNW 12.7 mph 26.5 mph N/A Snow Light Snow
6:55 AM 15.8 °F 1.4 °F 12.2 °F 86% 29.85 in 5.0 mi WNW 13.8 mph 20.7 mph N/A Snow Light Snow
7:15 AM 15.8 °F 5.1 °F 12.2 °F 86% 29.86 in 3.0 mi WNW 8.1 mph 20.7 mph N/A Snow Light Snow
7:35 AM 17.6 °F 4.3 °F 12.2 °F 79% 29.87 in 2.5 mi WNW 12.7 mph 20.7 mph N/A Snow Light Snow
7:55 AM 17.6 °F 5.7 °F 12.2 °F 79% 29.88 in 2.5 mi WNW 10.4 mph 18.4 mph N/A Snow Light Snow
8:15 AM 17.6 °F 3.2 °F 12.2 °F 79% 29.88 in 2.0 mi WNW 15.0 mph 21.9 mph N/A Snow Light Snow
8:35 AM 17.6 °F 5.7 °F 14.0 °F 86% 29.88 in 1.5 mi WNW 10.4 mph 21.9 mph N/A Snow Light Snow
8:55 AM 17.6 °F 4.3 °F 14.0 °F 86% 29.88 in 3.0 mi WNW 12.7 mph 23.0 mph N/A Snow Light Snow
9:15 AM 17.6 °F 5.7 °F 14.0 °F 86% 29.88 in 4.0 mi WNW 10.4 mph 20.7 mph N/A Snow Light Snow
9:35 AM 17.6 °F 3.7 °F 14.0 °F 86% 29.88 in 1.8 mi WNW 13.8 mph 20.7 mph N/A Snow Light Snow
9:55 AM 19.4 °F 9.5 °F 14.0 °F 80% 29.88 in 1.2 mi WNW 8.1 mph 17.3 mph N/A Snow Light Snow
10:15 AM 19.4 °F 8.6 °F 14.0 °F 80% 29.88 in 1.5 mi WNW 9.2 mph - N/A Snow Light Snow
10:35 AM 21.2 °F 10.1 °F 15.8 °F 80% 29.88 in 2.0 mi WNW 10.4 mph 20.7 mph N/A Snow Light Snow
10:55 AM 21.2 °F 11.7 °F 17.6 °F 86% 29.88 in 1.8 mi WNW 8.1 mph - N/A Snow Light Snow
11:15 AM 21.2 °F 10.1 °F 17.6 °F 86% 29.88 in 2.5 mi WNW 10.4 mph 19.6 mph N/A Snow Light Snow
11:35 AM 21.2 °F 10.1 °F 17.6 °F 86% 29.88 in 5.0 mi WNW 10.4 mph 21.9 mph N/A Snow Light Snow
11:55 AM 21.2 °F 12.6 °F 17.6 °F 86% 29.88 in 7.0 mi West 6.9 mph 20.7 mph N/A Snow Light Snow
12:15 PM 21.2 °F 10.9 °F 17.6 °F 86% 29.88 in 10.0 mi WNW 9.2 mph 18.4 mph N/A   Overcast
12:35 PM 21.2 °F 12.6 °F 19.4 °F 93% 29.88 in 7.0 mi WNW 6.9 mph 16.1 mph N/A   Overcast
12:55 PM 21.2 °F 10.1 °F 19.4 °F 93% 29.88 in 7.0 mi WNW 10.4 mph 18.4 mph N/A   Overcast
1:15 PM 21.2 °F 8.3 °F 17.6 °F 86% 29.88 in 5.0 mi WNW 13.8 mph 26.5 mph N/A Snow Light Snow
1:55 PM 23.0 °F 11.7 °F 17.6 °F 80% 29.88 in 7.0 mi WNW 11.5 mph 20.7 mph N/A   Overcast
2:15 PM 23.0 °F 13.1 °F 17.6 °F 80% 29.88 in 10.0 mi West 9.2 mph 21.9 mph N/A   Overcast
2:35 PM 23.0 °F 11.7 °F 17.6 °F 80% 29.89 in 7.0 mi WNW 11.5 mph 27.6 mph N/A   Overcast
2:55 PM 23.0 °F 13.9 °F 19.4 °F 86% 29.89 in 10.0 mi WNW 8.1 mph 16.1 mph N/A   Overcast
3:15 PM 23.0 °F 14.7 °F 19.4 °F 86% 29.89 in 7.0 mi WNW 6.9 mph 21.9 mph N/A   Overcast
3:35 PM 21.2 °F 11.7 °F 19.4 °F 93% 29.89 in 4.0 mi West 8.1 mph 20.7 mph N/A   Overcast
3:55 PM 21.2 °F 10.9 °F 19.4 °F 93% 29.90 in 5.0 mi West 9.2 mph 18.4 mph N/A   Overcast
4:35 PM 21.2 °F 10.9 °F 19.4 °F 93% 29.90 in 10.0 mi West 9.2 mph 18.4 mph N/A   Overcast
4:55 PM 21.2 °F 10.1 °F 19.4 °F 93% 29.90 in 10.0 mi West 10.4 mph 16.1 mph N/A   Overcast
5:15 PM 21.2 °F 12.6 °F 19.4 °F 93% 29.90 in 10.0 mi WNW 6.9 mph 19.6 mph N/A   Overcast
5:35 PM 21.2 °F 10.9 °F 19.4 °F 93% 29.91 in 7.0 mi West 9.2 mph 19.6 mph N/A   Overcast
5:55 PM 21.2 °F 9.5 °F 19.4 °F 93% 29.91 in 10.0 mi WNW 11.5 mph 24.2 mph N/A   Overcast
6:15 PM 21.2 °F 10.9 °F 19.4 °F 93% 29.92 in 10.0 mi West 9.2 mph 18.4 mph N/A   Overcast
6:35 PM 21.2 °F 11.7 °F 19.4 °F 93% 29.92 in 10.0 mi WNW 8.1 mph 20.7 mph N/A   Overcast
6:55 PM 21.2 °F 11.7 °F 19.4 °F 93% 29.92 in 10.0 mi West 8.1 mph 20.7 mph N/A   Overcast
7:15 PM 21.2 °F 12.6 °F 19.4 °F 93% 29.93 in 10.0 mi West 6.9 mph 19.6 mph N/A   Overcast
7:35 PM 21.2 °F 11.7 °F 19.4 °F 93% 29.93 in 7.0 mi West 8.1 mph 20.7 mph N/A   Overcast
7:55 PM 21.2 °F 12.6 °F 19.4 °F 93% 29.94 in 10.0 mi West 6.9 mph 19.6 mph N/A   Overcast
8:15 PM 21.2 °F 11.7 °F 19.4 °F 93% 29.93 in 10.0 mi West 8.1 mph 19.6 mph N/A   Overcast
8:35 PM 21.2 °F 10.9 °F 17.6 °F 86% 29.94 in 10.0 mi WNW 9.2 mph 16.1 mph N/A   Overcast
8:55 PM 21.2 °F 10.9 °F 19.4 °F 93% 29.94 in 10.0 mi West 9.2 mph 16.1 mph N/A   Overcast
9:35 PM 21.2 °F 13.6 °F 19.4 °F 93% 29.95 in 10.0 mi WNW 5.8 mph - N/A   Overcast
9:55 PM 21.2 °F 13.6 °F 19.4 °F 93% 29.95 in 10.0 mi WNW 5.8 mph - N/A   Overcast
10:15 PM 21.2 °F 11.7 °F 19.4 °F 93% 29.95 in 10.0 mi WNW 8.1 mph - N/A   Overcast
10:35 PM 21.2 °F 12.6 °F 19.4 °F 93% 29.95 in 10.0 mi WNW 6.9 mph - N/A   Overcast
10:55 PM 21.2 °F 11.7 °F 19.4 °F 93% 29.95 in 10.0 mi WNW 8.1 mph - N/A   Overcast
11:15 PM 19.4 °F 12.8 °F 19.4 °F 100% 29.95 in 10.0 mi WNW 4.6 mph - N/A   Overcast
11:35 PM 19.4 °F 9.5 °F 19.4 °F 100% 29.95 in 10.0 mi West 8.1 mph - N/A   Overcast
11:55 PM 19.4 °F 10.4 °F 19.4 °F 100% 29.95 in 10.0 mi WNW 6.9 mph - N/A   Overcast